GW3250 Weather Reports


time (UTC)temp
C
wind
direction
speed
KPH
gust
KPH
rain 1hr
cm
rain 24hr
cm
rain mn
cm
humidity
%
barometer
mb
20260510220154 15 147 0.0 1.6 0.00 0.00 0.00 83 1011.8
20260510215651 15 170 0.0 1.6 0.00 0.00 0.00 83 1011.5
20260510215150 15 196 1.6 1.6 0.00 0.00 0.00 83 1011.7
20260510214646 15 190 0.0 1.6 0.00 0.00 0.00 83 1011.7
20260510214143 16 266 0.0 1.6 0.00 0.00 0.00 83 1011.5
20260510213640 16 348 3.2 3.2 0.00 0.00 0.00 82 1011.5
20260510213136 16 209 0.0 0.0 0.00 0.00 0.00 82 1011.5
20260510212633 16 213 6.4 6.4 0.00 0.00 0.00 80 1011.6
20260510212130 16 218 1.6 3.2 0.00 0.00 0.00 81 1011.5
20260510211626 16 176 1.6 3.2 0.00 0.00 0.00 82 1011.5
20260510211121 16 233 3.2 4.8 0.00 0.00 0.00 80 1011.4
20260510210618 16 234 3.2 3.2 0.00 0.00 0.00 81 1011.3
20260510210114 17 230 3.2 3.2 0.00 0.00 0.00 79 1011.2
20260510205612 17 231 0.0 1.6 0.00 0.00 0.00 79 1010.9
20260510205108 17 25 1.6 3.2 0.00 0.00 0.00 77 1010.8
20260510204605 16 227 3.2 4.8 0.00 0.00 0.00 81 1011.4
20260510204102 16 234 3.2 3.2 0.00 0.00 0.00 82 1011.0
20260510203559 16 239 3.2 4.8 0.00 0.00 0.00 81 1010.9
20260510203055 16 245 1.6 3.2 0.00 0.00 0.00 81 1010.9
20260510202554 16 230 1.6 1.6 0.00 0.00 0.00 80 1011.1
20260510202051 16 181 1.6 3.2 0.00 0.00 0.00 82 1011.0
20260510201548 16 186 3.2 4.8 0.00 0.00 0.00 82 1010.8
20260510201045 15 113 1.6 1.6 0.00 0.00 0.00 83 1011.2
20260510200541 15 231 1.6 1.6 0.00 0.00 0.00 84 1011.1
20260510200039 15 156 1.6 3.2 0.00 0.00 0.00 85 1011.3
20260510195536 15 202 0.0 1.6 0.00 0.00 0.00 84 1011.4
20260510195032 15 202 0.0 0.0 0.00 0.00 0.00 85 1011.3
20260510194527 15 202 0.0 1.6 0.00 0.00 0.00 84 1011.5
20260510194024 15 193 1.6 1.6 0.00 0.00 0.00 85 1011.5
20260510193519 15 162 1.6 1.6 0.00 0.00 0.00 86 1011.5
20260510193015 15 242 3.2 3.2 0.00 0.00 0.00 85 1011.4
20260510192509 15 200 1.6 1.6 0.00 0.00 0.00 87 1011.2
20260510192006 14 62 0.0 0.0 0.00 0.00 0.00 88 1011.4
20260510191502 14 161 1.6 3.2 0.00 0.00 0.00 88 1011.5
20260510190959 15 156 3.2 4.8 0.00 0.00 0.00 87 1011.4
20260510190456 15 20 3.2 6.4 0.00 0.00 0.00 86 1011.1
20260510185953 15 61 0.0 0.0 0.00 0.00 0.00 84 1011.2
20260510185450 15 75 0.0 1.6 0.00 0.00 0.00 81 1011.2
20260510184948 15 235 3.2 3.2 0.00 0.00 0.00 80 1011.2
20260510184445 17 166 9.7 11.3 0.00 0.00 0.00 75 1011.1
20260510183945 17 262 4.8 6.4 0.00 0.00 0.00 72 1010.6
20260510183442 17 232 6.4 9.7 0.00 0.00 0.00 73 1010.6
20260510182941 17 16 6.4 11.3 0.00 0.00 0.00 74 1010.8
20260510182438 17 267 4.8 6.4 0.00 0.00 0.00 77 1011.1
20260510181933 16 147 1.6 1.6 0.00 0.00 0.00 86 1011.0
20260510181432 15 148 0.0 1.6 0.00 0.00 0.00 88 1010.6
20260510180928 16 148 0.0 0.0 0.00 0.00 0.00 85 1010.8
20260510180425 16 175 1.6 1.6 0.00 0.00 0.00 82 1010.7
20260510175922 16 191 1.6 3.2 0.00 0.00 0.00 79 1010.5
20260510175418 16 230 1.6 1.6 0.00 0.00 0.00 78 1010.6
20260510174914 17 232 1.6 3.2 0.00 0.00 0.00 74 1010.5
20260510174412 17 272 0.0 1.6 0.00 0.00 0.00 76 1010.6
20260510173908 17 272 0.0 0.0 0.00 0.00 0.00 75 1010.7
20260510173404 17 231 0.0 0.0 0.00 0.00 0.00 75 1010.8
20260510172900 17 231 0.0 0.0 0.00 0.00 0.00 74 1010.8
20260510172356 17 238 3.2 3.2 0.00 0.00 0.00 72 1010.7
20260510171852 17 227 1.6 1.6 0.00 0.00 0.00 70 1010.6
20260510171350 17 227 0.0 0.0 0.00 0.00 0.00 72 1010.5
20260510170847 18 227 0.0 0.0 0.00 0.00 0.00 72 1010.6
20260510170343 18 183 1.6 1.6 0.00 0.00 0.00 70 1010.4
20260510165838 18 188 1.6 1.6 0.00 0.00 0.00 71 1010.3
20260510165335 17 181 0.0 1.6 0.00 0.00 0.00 72 1010.3
20260510164833 17 229 1.6 1.6 0.00 0.00 0.00 73 1010.5
20260510164330 18 230 3.2 3.2 0.00 0.00 0.00 69 1010.7
20260510163829 18 230 0.0 1.6 0.00 0.00 0.00 69 1010.4
20260510163326 18 129 0.0 1.6 0.00 0.00 0.00 71 1010.7
20260510162825 19 167 3.2 3.2 0.00 0.00 0.00 69 1010.5
20260510162323 18 28 1.6 1.6 0.00 0.00 0.00 69 1010.6
20260510161818 18 98 1.6 1.6 0.00 0.00 0.00 74 1010.6
20260510161315 19 170 3.2 4.8 0.00 0.00 0.00 68 1010.6
20260510160812 19 227 1.6 1.6 0.00 0.00 0.00 70 1010.7
20260510160308 18 213 0.0 0.0 0.00 0.00 0.00 71 1010.7
20260510155802 18 224 6.4 9.7 0.00 0.00 0.00 73 1010.6
20260510155259 17 240 4.8 4.8 0.00 0.00 0.00 74 1010.8
20260510154755 18 217 3.2 3.2 0.00 0.00 0.00 73 1010.6
20260510154251 17 232 4.8 6.4 0.00 0.00 0.00 79 1011.0
20260510153746 17 187 3.2 4.8 0.00 0.00 0.00 75 1010.9
20260510153242 17 234 0.0 1.6 0.00 0.00 0.00 75 1010.7
20260510152734 17 228 3.2 4.8 0.00 0.00 0.00 76 1010.6
20260510152230 17 226 3.2 4.8 0.00 0.00 0.00 75 1010.6
20260510151727 18 235 6.4 9.7 0.00 0.00 0.00 73 1010.5
20260510151226 16 196 6.4 9.7 0.00 0.00 0.00 77 1010.5
20260510150721 16 239 0.0 1.6 0.00 0.00 0.00 79 1010.5
20260510150216 16 228 6.4 9.7 0.00 0.00 0.00 78 1010.3
20260510145712 17 243 3.2 4.8 0.00 0.00 0.00 83 1010.3
20260510145209 16 161 0.0 1.6 0.00 0.00 0.00 83 1010.5
20260510144705 16 161 1.6 1.6 0.00 0.00 0.00 85 1010.4
20260510144203 16 172 1.6 3.2 0.00 0.00 0.00 82 1010.3
20260510143657 16 172 3.2 3.2 0.00 0.00 0.00 83 1010.6
20260510143154 16 115 1.6 1.6 0.00 0.00 0.00 86 1010.5
20260510142650 16 264 4.8 6.4 0.00 0.00 0.00 83 1010.7
20260510142147 16 197 1.6 1.6 0.00 0.00 0.00 82 1010.5
20260510141644 16 197 1.6 3.2 0.00 0.00 0.00 84 1010.4
20260510141142 16 197 3.2 3.2 0.00 0.00 0.00 82 1010.5
20260510140638 17 241 4.8 4.8 0.00 0.00 0.00 83 1010.2
20260510140137 17 219 1.6 1.6 0.00 0.00 0.00 86 1010.3
20260510135633 16 219 1.6 3.2 0.00 0.00 0.00 86 1010.2
20260510135129 15 219 0.0 1.6 0.00 0.00 0.00 89 1010.4
20260510134626 16 225 1.6 3.2 0.00 0.00 0.00 83 1010.2
20260510134124 15 193 1.6 1.6 0.00 0.00 0.00 87 1009.9
20260510133620 15 188 1.6 1.6 0.00 0.00 0.00 84 1010.1
20260510133115 15 188 1.6 1.6 0.00 0.00 0.00 85 1010.1
20260510132612 14 188 1.6 1.6 0.00 0.00 0.00 89 1010.2
20260510132109 13 186 1.6 1.6 0.00 0.00 0.00 89 1010.2
20260510131607 14 186 3.2 3.2 0.00 0.00 0.00 89 1010.3
20260510131104 13 186 3.2 3.2 0.00 0.00 0.00 93 1010.4
20260510130600 13 186 0.0 0.0 0.00 0.00 0.00 92 1010.4
20260510130058 13 186 0.0 1.6 0.00 0.00 0.00 95 1010.2
20260510125554 12 186 0.0 0.0 0.00 0.00 0.00 96 1010.2
20260510125050 12 186 0.0 0.0 0.00 0.00 0.00 99 1010.3
20260510124547 12 186 1.6 1.6 0.00 0.00 0.00 99 1010.3
20260510124044 12 186 1.6 1.6 0.00 0.00 0.00 99 1009.8
20260510123539 12 186 0.0 0.0 0.00 0.00 0.00 99 1009.9
20260510123036 11 178 0.0 1.6 0.00 0.00 0.00 99 1010.1
20260510122531 11 179 0.0 1.6 0.00 0.00 0.00 99 1009.8
20260510122028 11 181 1.6 3.2 0.00 0.00 0.00 99 1010.2
20260510121525 11 180 0.0 1.6 0.00 0.00 0.00 99 1009.8
20260510121022 11 174 0.0 0.0 0.00 0.00 0.00 99 1009.8
20260510120520 11 197 3.2 3.2 0.00 0.00 0.00 99 1009.7
20260510120016 11 146 0.0 0.0 0.00 0.00 0.00 99 1009.6
20260510115512 11 145 0.0 0.0 0.00 0.00 0.00 99 1009.5
20260510115009 10 145 0.0 1.6 0.00 0.00 0.00 99 1009.2
20260510114505 10 145 0.0 0.0 0.00 0.00 0.00 99 1009.2
20260510114001 10 145 0.0 0.0 0.00 0.00 0.00 99 1009.1
20260510113456 10 143 0.0 0.0 0.00 0.00 0.00 99 1009.2
20260510112954 10 143 0.0 0.0 0.00 0.00 0.00 99 1009.0
20260510112451 10 143 0.0 0.0 0.00 0.00 0.00 99 1009.3
20260510111947 10 199 0.0 0.0 0.00 0.00 0.00 99 1009.4
20260510111443 10 199 0.0 0.0 0.00 0.00 0.00 99 1009.1
20260510110939 9 199 0.0 0.0 0.00 0.00 0.00 99 1009.1
20260510110435 9 199 0.0 0.0 0.00 0.00 0.00 99 1008.8
20260510105931 9 199 0.0 0.0 0.00 0.00 0.00 99 1008.9
20260510105427 9 199 0.0 0.0 0.00 0.00 0.00 99 1008.8
20260510104922 9 200 0.0 0.0 0.00 0.00 0.00 99 1008.8
20260510104419 9 199 0.0 0.0 0.00 0.00 0.00 99 1008.5
20260510103915 9 199 0.0 0.0 0.00 0.00 0.00 99 1008.7
20260510103413 9 199 0.0 0.0 0.00 0.00 0.00 99 1009.0
20260510102908 9 199 0.0 0.0 0.00 0.00 0.00 99 1008.6
20260510102404 9 199 0.0 0.0 0.00 0.00 0.00 99 1008.5
20260510101902 9 199 0.0 0.0 0.00 0.00 0.00 99 1008.6
20260510101359 9 199 0.0 0.0 0.00 0.00 0.00 99 1008.7
20260510100856 9 199 0.0 0.0 0.00 0.00 0.00 99 1008.7
20260510100353 9 199 0.0 0.0 0.00 0.00 0.00 99 1008.4
20260510095850 9 199 0.0 0.0 0.00 0.00 0.00 99 1008.4
20260510095344 9 199 0.0 0.0 0.00 0.00 0.00 99 1008.5
20260510094844 9 199 0.0 0.0 0.00 0.00 0.00 99 1008.4
20260510094339 9 198 0.0 0.0 0.00 0.00 0.00 99 1008.2
20260510093836 9 198 0.0 0.0 0.00 0.00 0.00 99 1008.2
20260510093332 9 198 0.0 0.0 0.00 0.00 0.00 99 1008.1
20260510092828 9 198 0.0 0.0 0.00 0.00 0.00 99 1008.3
20260510092324 9 198 0.0 1.6 0.00 0.00 0.00 99 1008.2
20260510091820 9 198 0.0 0.0 0.00 0.00 0.00 99 1008.0
20260510091318 9 203 0.0 0.0 0.00 0.00 0.00 99 1007.9
20260510090814 9 203 0.0 0.0 0.00 0.00 0.00 99 1008.0
20260510090311 9 203 1.6 1.6 0.00 0.00 0.00 99 1008.2
20260510085807 9 203 1.6 1.6 0.00 0.00 0.00 99 1007.9
20260510085307 9 203 0.0 0.0 0.00 0.00 0.00 99 1008.1
20260510084803 9 203 0.0 0.0 0.00 0.00 0.00 99 1007.8
20260510084259 9 203 1.6 1.6 0.00 0.00 0.00 99 1007.7
20260510083756 10 203 0.0 0.0 0.00 0.00 0.00 99 1007.8
20260510083254 10 203 0.0 0.0 0.00 0.00 0.00 99 1007.9
20260510082749 10 203 1.6 1.6 0.00 0.00 0.00 99 1007.9
20260510082245 9 203 0.0 0.0 0.00 0.00 0.00 99 1007.7
20260510081744 9 203 0.0 0.0 0.00 0.00 0.00 99 1007.9
20260510081241 9 203 0.0 0.0 0.00 0.00 0.00 99 1008.0
20260510080736 9 203 0.0 0.0 0.00 0.00 0.00 99 1008.1
20260510080232 9 203 0.0 0.0 0.00 0.00 0.00 99 1008.1
20260510075729 9 203 0.0 0.0 0.00 0.00 0.00 99 1008.1
20260510075227 9 203 0.0 0.0 0.00 0.00 0.00 99 1008.2
20260510074724 9 203 0.0 0.0 0.00 0.00 0.00 99 1008.1
20260510074220 9 203 0.0 0.0 0.00 0.00 0.00 99 1008.2
20260510073716 9 203 1.6 1.6 0.00 0.00 0.00 99 1008.1
20260510073212 9 203 1.6 1.6 0.00 0.00 0.00 99 1008.1
20260510072708 10 203 0.0 0.0 0.00 0.00 0.00 99 1008.7
20260510072205 10 203 0.0 0.0 0.00 0.00 0.00 99 1008.5
20260510071701 10 203 0.0 0.0 0.00 0.00 0.00 99 1008.7
20260510071158 10 204 1.6 1.6 0.00 0.00 0.00 99 1008.6
20260510070656 10 204 0.0 0.0 0.00 0.00 0.00 99 1008.7
20260510070154 10 204 0.0 0.0 0.00 0.00 0.00 99 1008.7
20260510065649 10 204 0.0 0.0 0.00 0.00 0.00 99 1008.8
20260510065145 10 204 0.0 0.0 0.00 0.00 0.00 99 1008.6
20260510064642 10 204 0.0 0.0 0.00 0.00 0.00 99 1008.9
20260510064138 10 204 1.6 1.6 0.00 0.00 0.00 99 1008.9
20260510063636 10 204 0.0 1.6 0.00 0.00 0.00 99 1009.0
20260510063132 10 204 1.6 1.6 0.00 0.00 0.00 99 1009.0
20260510062628 10 210 1.6 1.6 0.00 0.00 0.00 99 1009.0
20260510062124 10 230 0.0 1.6 0.00 0.00 0.00 99 1008.9
20260510061620 10 230 0.0 0.0 0.00 0.00 0.00 99 1008.9
20260510061118 10 230 0.0 0.0 0.00 0.00 0.00 99 1008.9
20260510060613 10 239 3.2 3.2 0.00 0.00 0.00 99 1008.6
20260510060110 10 206 1.6 1.6 0.00 0.00 0.00 99 1008.4
20260510055606 10 206 0.0 0.0 0.00 0.00 0.00 99 1008.6
20260510055105 10 217 0.0 0.0 0.00 0.00 0.00 99 1008.6
20260510054600 10 216 0.0 0.0 0.00 0.00 0.00 99 1008.7
20260510054055 10 216 0.0 0.0 0.00 0.00 0.00 99 1008.7
20260510053549 10 216 0.0 0.0 0.00 0.00 0.00 99 1008.5
20260510053046 10 216 0.0 0.0 0.00 0.00 0.00 99 1008.8
20260510052542 10 216 0.0 0.0 0.00 0.00 0.00 99 1008.8
20260510052038 10 217 0.0 0.0 0.00 0.00 0.00 99 1008.5
20260510051534 10 217 0.0 0.0 0.00 0.00 0.00 99 1008.8
20260510051031 10 217 0.0 0.0 0.00 0.00 0.00 99 1008.7
20260510050528 10 217 0.0 0.0 0.00 0.00 0.00 99 1008.6
20260510050025 10 217 0.0 0.0 0.00 0.00 0.00 99 1008.5
20260510045522 10 217 0.0 0.0 0.00 0.00 0.00 99 1008.4
20260510045018 10 208 0.0 1.6 0.00 0.00 0.00 99 1008.4
20260510044515 9 180 0.0 0.0 0.00 0.00 0.00 99 1008.2
20260510044014 9 186 0.0 1.6 0.00 0.00 0.00 99 1008.1
20260510043513 9 160 0.0 0.0 0.00 0.00 0.00 99 1008.2
20260510043009 9 142 1.6 1.6 0.00 0.00 0.00 99 1008.3
20260510042503 9 167 3.2 4.8 0.00 0.00 0.00 99 1008.3
20260510041958 9 120 1.6 3.2 0.00 0.00 0.00 99 1008.2
20260510041455 9 121 1.6 1.6 0.00 0.00 0.00 99 1008.1
20260510040954 9 194 3.2 3.2 0.00 0.00 0.00 99 1008.2
20260510040450 9 152 0.0 0.0 0.00 0.00 0.00 99 1008.1
20260510035946 9 152 0.0 0.0 0.00 0.99 0.99 99 1008.1
20260510035442 9 152 0.0 0.0 0.00 0.99 0.99 99 1008.0
20260510034936 8 152 0.0 0.0 0.00 0.99 0.99 99 1008.0
20260510034435 8 152 0.0 0.0 0.00 0.99 0.99 99 1008.1
20260510033931 8 152 1.6 1.6 0.00 0.99 0.99 99 1008.0
20260510033427 9 152 0.0 0.0 0.00 0.99 0.99 99 1007.9
20260510032924 8 152 0.0 0.0 0.00 0.99 0.99 99 1008.1
20260510032421 9 152 0.0 0.0 0.00 0.99 0.99 99 1008.0
20260510031916 9 152 1.6 1.6 0.00 0.99 0.99 99 1007.7
20260510031413 9 152 1.6 1.6 0.00 0.99 0.99 99 1008.0
20260510030912 9 153 0.0 0.0 0.00 0.99 0.99 99 1007.8
20260510030409 9 153 0.0 0.0 0.00 0.99 0.99 99 1007.9
20260510025907 8 153 0.0 0.0 0.00 0.99 0.99 99 1008.0
20260510025404 8 153 0.0 0.0 0.00 0.99 0.99 99 1007.9
20260510024901 9 153 0.0 0.0 0.00 0.99 0.99 99 1007.8
20260510024357 9 153 0.0 0.0 0.00 0.99 0.99 99 1008.1
20260510023853 9 153 0.0 0.0 0.00 0.99 0.99 99 1008.1
20260510023350 9 153 0.0 0.0 0.00 0.99 0.99 99 1008.2
20260510022848 9 153 0.0 1.6 0.00 0.99 0.99 99 1008.0
20260510022347 10 153 1.6 1.6 0.00 0.99 0.99 99 1008.1
20260510021845 10 153 0.0 0.0 0.00 0.99 0.99 99 1007.9
20260510021344 10 153 0.0 1.6 0.00 0.99 0.99 99 1008.0
20260510020840 9 153 1.6 1.6 0.00 0.99 0.99 99 1008.0
20260510020335 9 153 0.0 0.0 0.00 0.99 0.99 99 1007.9
20260510015831 9 153 0.0 1.6 0.00 0.99 0.99 99 1007.7
20260510015327 9 163 0.0 0.0 0.00 0.99 0.99 99 1008.0
20260510014822 9 163 0.0 1.6 0.00 0.99 0.99 99 1007.9
20260510014320 10 169 0.0 0.0 0.00 0.99 0.99 99 1007.8
20260510013816 9 171 1.6 1.6 0.00 0.99 0.99 99 1007.8
20260510013311 9 186 1.6 1.6 0.00 0.99 0.99 99 1007.8
20260510012806 10 153 0.0 0.0 0.00 0.99 0.99 99 1007.6
20260510012300 10 127 1.6 1.6 0.00 0.99 0.99 99 1007.7
20260510011755 10 157 1.6 1.6 0.00 0.99 0.99 99 1007.4
20260510011251 9 176 0.0 0.0 0.00 0.99 0.99 99 1007.6
20260510010748 9 177 0.0 0.0 0.00 0.99 0.99 99 1007.7
20260510010244 10 177 0.0 0.0 0.00 0.99 0.99 99 1007.5
20260510005742 10 177 0.0 1.6 0.00 0.99 0.99 99 1007.9
20260510005238 10 169 0.0 0.0 0.00 0.99 0.99 99 1007.5
20260510004736 10 103 1.6 1.6 0.00 0.99 0.99 99 1007.4
20260510004233 10 103 1.6 3.2 0.00 0.99 0.99 99 1007.4
20260510003731 10 128 3.2 4.8 0.00 0.99 0.99 99 1007.6
20260510003227 10 177 0.0 0.0 0.00 0.99 0.99 99 1007.4
20260510002725 10 185 0.0 0.0 0.00 0.99 0.99 99 1007.4
20260510002223 10 128 0.0 0.0 0.00 0.99 0.99 99 1007.3
20260510001720 10 165 0.0 0.0 0.00 0.99 0.99 99 1007.2
20260510001219 10 165 0.0 1.6 0.00 0.99 0.99 99 1007.0
20260510000714 10 165 0.0 1.6 0.00 0.99 0.99 99 1007.0
20260510000211 10 165 0.0 1.6 0.00 0.99 0.99 99 1007.2
20260509235708 10 165 0.0 1.6 0.00 0.99 0.99 99 1007.3
20260509235204 10 171 0.0 0.0 0.00 0.99 0.99 99 1006.9
20260509234701 11 177 1.6 1.6 0.00 0.99 0.99 99 1006.8
20260509234158 11 157 0.0 1.6 0.00 0.99 0.99 99 1006.7
20260509233656 11 133 1.6 1.6 0.00 0.99 0.99 99 1006.5
20260509233153 11 208 1.6 1.6 0.00 0.99 0.99 99 1006.4
20260509232649 11 214 0.0 0.0 0.00 0.99 0.99 99 1006.1
20260509232146 11 216 0.0 1.6 0.00 0.99 0.99 99 1006.2
20260509231643 11 216 0.0 0.0 0.00 0.99 0.99 99 1006.2
20260509231140 11 216 0.0 0.0 0.00 0.99 0.99 99 1006.2
20260509230637 11 216 0.0 0.0 0.00 0.99 0.99 99 1006.2
20260509230134 11 216 1.6 1.6 0.00 0.99 0.99 99 1006.4
20260509225630 11 216 0.0 1.6 0.00 0.99 0.99 99 1006.5
20260509225125 11 216 1.6 1.6 0.00 0.99 0.99 99 1006.4
20260509224621 11 216 1.6 1.6 0.00 0.99 0.99 99 1006.5
20260509224118 12 216 1.6 3.2 0.00 0.99 0.99 99 1006.3
20260509223615 12 216 0.0 1.6 0.00 0.99 0.99 99 1006.3
20260509223113 12 216 1.6 1.6 0.00 0.99 0.99 99 1006.7
20260509222608 12 217 0.0 0.0 0.00 0.99 0.99 99 1006.7
20260509222105 11 216 0.0 0.0 0.00 0.99 0.99 99 1006.6
20260509221600 11 217 0.0 1.6 0.00 0.99 0.99 99 1006.6
20260509221056 11 217 0.0 0.0 0.00 0.99 0.99 99 1006.7
20260509220552 11 217 0.0 0.0 0.00 0.99 0.99 99 1006.6